GW5006 Weather Reports


time (UTC)temp
C
wind
direction
speed
KPH
gust
KPH
rain 1hr
cm
rain 24hr
cm
rain mn
cm
humidity
%
barometer
mb
20260906232657 22 233 1.6 3.2 0.00 0.00 0.00 33 1020.1
20260906232153 22 263 3.2 3.2 0.00 0.00 0.00 37 1020.0
20260906231647 22 156 1.6 3.2 0.00 0.00 0.00 31 1020.0
20260906231143 22 299 0.0 1.6 0.00 0.00 0.00 32 1020.0
20260906230642 22 242 0.0 3.2 0.00 0.00 0.00 31 1019.8
20260906230137 22 196 0.0 1.6 0.00 0.00 0.00 31 1019.8
20260906225635 23 137 0.0 1.6 0.00 0.00 0.00 30 1019.8
20260906225132 23 243 0.0 4.8 0.00 0.00 0.00 30 1020.1
20260906224632 23 233 3.2 4.8 0.00 0.00 0.00 31 1020.0
20260906224129 23 259 1.6 4.8 0.00 0.00 0.00 31 1019.8
20260906223625 23 241 3.2 3.2 0.00 0.00 0.00 28 1020.0
20260906223124 23 241 3.2 4.8 0.00 0.00 0.00 28 1020.0
20260906222623 23 233 1.6 4.8 0.00 0.00 0.00 26 1020.0
20260906222121 23 258 3.2 6.4 0.00 0.00 0.00 27 1019.7
20260906221615 24 230 4.8 6.4 0.00 0.00 0.00 25 1020.0
20260906221110 23 174 3.2 6.4 0.00 0.00 0.00 26 1019.8
20260906220605 23 232 3.2 4.8 0.00 0.00 0.00 27 1020.2
20260906220100 23 220 0.0 6.4 0.00 0.00 0.00 26 1019.7
20260906215559 23 226 3.2 8.0 0.00 0.00 0.00 26 1020.0
20260906215057 23 216 3.2 6.4 0.00 0.00 0.00 29 1019.8
20260906214555 23 216 3.2 4.8 0.00 0.00 0.00 27 1020.0
20260906214051 23 234 3.2 6.4 0.00 0.00 0.00 28 1019.8
20260906213549 24 221 4.8 4.8 0.00 0.00 0.00 30 1020.0
20260906213044 24 222 3.2 3.2 0.00 0.00 0.00 31 1019.8
20260906212537 24 218 3.2 4.8 0.00 0.00 0.00 31 1020.1
20260906212033 24 223 3.2 4.8 0.00 0.00 0.00 28 1020.0
20260906211532 24 213 3.2 6.4 0.00 0.00 0.00 29 1020.3
20260906211028 24 233 3.2 9.7 0.00 0.00 0.00 29 1020.3
20260906210523 23 197 3.2 4.8 0.00 0.00 0.00 29 1020.3
20260906210018 23 241 3.2 4.8 0.00 0.00 0.00 30 1020.6
20260906205514 24 226 0.0 6.4 0.00 0.00 0.00 30 1020.3
20260906205010 24 232 3.2 9.7 0.00 0.00 0.00 28 1020.3
20260906204509 25 232 3.2 6.4 0.00 0.00 0.00 27 1020.6
20260906204008 25 226 3.2 6.4 0.00 0.00 0.00 27 1020.6
20260906203504 25 240 6.4 8.0 0.00 0.00 0.00 28 1020.7
20260906203002 25 203 3.2 6.4 0.00 0.00 0.00 28 1020.6
20260906202500 25 236 3.2 8.0 0.00 0.00 0.00 27 1020.6
20260906201955 25 249 3.2 6.4 0.00 0.00 0.00 29 1020.6
20260906201449 25 209 3.2 4.8 0.00 0.00 0.00 26 1020.4
20260906200944 25 215 4.8 6.4 0.00 0.00 0.00 27 1020.4
20260906200441 25 237 3.2 6.4 0.00 0.00 0.00 28 1020.6
20260906195940 25 229 6.4 6.4 0.00 0.00 0.00 28 1020.8
20260906195436 25 255 3.2 8.0 0.00 0.00 0.00 27 1020.9
20260906194932 25 236 6.4 8.0 0.00 0.00 0.00 28 1020.7
20260906194428 25 241 3.2 4.8 0.00 0.00 0.00 28 1020.6
20260906193923 24 233 8.0 9.7 0.00 0.00 0.00 26 1020.9
20260906193419 25 224 6.4 6.4 0.00 0.00 0.00 27 1020.8
20260906192914 24 246 4.8 6.4 0.00 0.00 0.00 27 1021.0
20260906192413 24 209 3.2 6.4 0.00 0.00 0.00 25 1021.0
20260906191913 25 225 4.8 8.0 0.00 0.00 0.00 27 1021.2
20260906191409 24 236 4.8 6.4 0.00 0.00 0.00 28 1021.3
20260906190907 25 262 4.8 8.0 0.00 0.00 0.00 26 1021.4
20260906190406 23 242 4.8 8.0 0.00 0.00 0.00 25 1021.5
20260906185901 23 233 3.2 8.0 0.00 0.00 0.00 27 1021.8
20260906185400 24 234 4.8 6.4 0.00 0.00 0.00 26 1022.0
20260906184900 24 202 3.2 8.0 0.00 0.00 0.00 26 1022.0
20260906184355 23 242 3.2 6.4 0.00 0.00 0.00 25 1021.9
20260906183851 23 234 4.8 6.4 0.00 0.00 0.00 30 1021.9
20260906183347 22 297 1.6 6.4 0.00 0.00 0.00 28 1022.3
20260906182841 22 174 0.0 3.2 0.00 0.00 0.00 27 1022.1
20260906182337 23 251 4.8 6.4 0.00 0.00 0.00 33 1022.4
20260906181837 23 241 3.2 8.0 0.00 0.00 0.00 29 1022.1
20260906181334 23 236 3.2 6.4 0.00 0.00 0.00 28 1022.5
20260906180829 22 249 3.2 6.4 0.00 0.00 0.00 30 1022.5
20260906180324 22 233 4.8 6.4 0.00 0.00 0.00 30 1022.5
20260906175821 22 233 3.2 6.4 0.00 0.00 0.00 31 1022.6
20260906175317 22 243 6.4 6.4 0.00 0.00 0.00 30 1022.7
20260906174816 22 254 3.2 6.4 0.00 0.00 0.00 30 1022.9
20260906174315 22 235 4.8 6.4 0.00 0.00 0.00 32 1022.7
20260906173810 22 263 3.2 4.8 0.00 0.00 0.00 34 1023.0
20260906173306 22 229 8.0 9.7 0.00 0.00 0.00 32 1022.7
20260906172805 22 234 3.2 6.4 0.00 0.00 0.00 35 1023.0
20260906172301 21 240 6.4 8.0 0.00 0.00 0.00 34 1023.0
20260906171755 21 227 3.2 8.0 0.00 0.00 0.00 34 1023.1
20260906171251 21 175 3.2 6.4 0.00 0.00 0.00 35 1023.1
20260906170746 21 276 3.2 6.4 0.00 0.00 0.00 39 1023.1
20260906170242 21 226 4.8 8.0 0.00 0.00 0.00 35 1023.2
20260906165738 21 240 4.8 6.4 0.00 0.00 0.00 36 1023.2
20260906165232 20 243 6.4 6.4 0.00 0.00 0.00 38 1023.2
20260906164732 20 262 3.2 6.4 0.00 0.00 0.00 38 1023.3
20260906164227 20 277 4.8 6.4 0.00 0.00 0.00 39 1023.5
20260906163723 19 242 3.2 4.8 0.00 0.00 0.00 42 1023.6
20260906163219 18 235 3.2 3.2 0.00 0.00 0.00 42 1023.5
20260906162716 18 261 3.2 4.8 0.00 0.00 0.00 42 1023.5
20260906162216 17 279 3.2 4.8 0.00 0.00 0.00 41 1023.6
20260906161710 17 250 3.2 4.8 0.00 0.00 0.00 43 1023.6
20260906161209 16 266 3.2 3.2 0.00 0.00 0.00 43 1023.6
20260906160709 15 259 3.2 4.8 0.00 0.00 0.00 45 1023.5
20260906160203 15 264 3.2 3.2 0.00 0.00 0.00 47 1023.7
20260906155700 14 253 1.6 3.2 0.00 0.00 0.00 50 1023.7
20260906155155 13 263 0.0 3.2 0.00 0.00 0.00 52 1023.7
20260906154650 13 215 0.0 3.2 0.00 0.00 0.00 54 1023.7
20260906154150 12 245 3.2 4.8 0.00 0.00 0.00 54 1023.8
20260906153649 12 250 3.2 3.2 0.00 0.00 0.00 52 1023.7
20260906153144 12 257 3.2 4.8 0.00 0.00 0.00 52 1023.8
20260906152639 11 256 4.8 4.8 0.00 0.00 0.00 57 1023.9
20260906152133 11 242 3.2 4.8 0.00 0.00 0.00 57 1023.6
20260906151628 11 269 0.0 3.2 0.00 0.00 0.00 56 1023.8
20260906151124 10 250 3.2 3.2 0.00 0.00 0.00 58 1023.7
20260906150619 10 290 3.2 3.2 0.00 0.00 0.00 58 1023.7
20260906150115 10 264 3.2 4.8 0.00 0.00 0.00 58 1023.7
20260906145613 10 254 3.2 3.2 0.00 0.00 0.00 59 1023.8
20260906145108 10 261 4.8 4.8 0.00 0.00 0.00 59 1023.7
20260906144602 10 278 1.6 3.2 0.00 0.00 0.00 60 1023.9
20260906144058 10 271 3.2 3.2 0.00 0.00 0.00 56 1023.8
20260906143557 10 276 3.2 4.8 0.00 0.00 0.00 55 1023.9
20260906143054 10 263 0.0 3.2 0.00 0.00 0.00 58 1023.7
20260906142553 10 277 4.8 4.8 0.00 0.00 0.00 60 1023.7
20260906142049 10 297 1.6 3.2 0.00 0.00 0.00 59 1023.8
20260906141548 10 273 1.6 4.8 0.00 0.00 0.00 59 1023.7
20260906141044 10 282 3.2 4.8 0.00 0.00 0.00 60 1023.8
20260906140543 10 293 0.0 4.8 0.00 0.00 0.00 58 1023.8
20260906140043 10 287 3.2 3.2 0.00 0.00 0.00 58 1023.5
20260906135540 10 265 3.2 4.8 0.00 0.00 0.00 59 1023.8
20260906135036 10 277 1.6 3.2 0.00 0.00 0.00 57 1023.7
20260906134531 10 274 3.2 3.2 0.00 0.00 0.00 58 1023.6
20260906134026 9 291 1.6 4.8 0.00 0.00 0.00 59 1023.6
20260906133522 9 292 3.2 3.2 0.00 0.00 0.00 60 1023.8
20260906133017 9 297 3.2 4.8 0.00 0.00 0.00 57 1023.7
20260906132512 9 277 3.2 4.8 0.00 0.00 0.00 57 1023.6
20260906132008 10 255 3.2 4.8 0.00 0.00 0.00 59 1023.6
20260906131503 10 278 3.2 4.8 0.00 0.00 0.00 54 1023.6
20260906130958 10 304 3.2 4.8 0.00 0.00 0.00 53 1023.5
20260906130457 10 251 0.0 3.2 0.00 0.00 0.00 52 1023.3
20260906125952 10 302 1.6 4.8 0.00 0.00 0.00 55 1023.3
20260906125450 10 271 3.2 4.8 0.00 0.00 0.00 57 1023.2
20260906124949 10 285 0.0 4.8 0.00 0.00 0.00 57 1023.3
20260906124445 10 264 3.2 3.2 0.00 0.00 0.00 54 1023.5
20260906123944 10 283 3.2 4.8 0.00 0.00 0.00 55 1023.2
20260906123439 10 284 3.2 4.8 0.00 0.00 0.00 53 1023.1
20260906122938 10 288 3.2 4.8 0.00 0.00 0.00 56 1023.0
20260906122433 10 248 3.2 6.4 0.00 0.00 0.00 55 1023.2
20260906121930 10 303 3.2 4.8 0.00 0.00 0.00 55 1023.1
20260906121426 10 261 3.2 4.8 0.00 0.00 0.00 56 1023.2
20260906120923 10 263 3.2 4.8 0.00 0.00 0.00 52 1023.1
20260906120418 11 241 0.0 6.4 0.00 0.00 0.00 54 1023.0
20260906115914 11 290 1.6 6.4 0.00 0.00 0.00 55 1023.0
20260906115409 11 315 4.8 8.0 0.00 0.00 0.00 57 1023.0
20260906114908 11 338 0.0 3.2 0.00 0.00 0.00 54 1023.1
20260906114403 11 266 4.8 6.4 0.00 0.00 0.00 51 1022.9
20260906113859 11 280 0.0 4.8 0.00 0.00 0.00 52 1023.0
20260906113358 11 267 3.2 6.4 0.00 0.00 0.00 51 1023.0
20260906112854 12 241 3.2 4.8 0.00 0.00 0.00 49 1023.0
20260906112349 12 253 4.8 6.4 0.00 0.00 0.00 53 1023.0
20260906111843 12 259 1.6 4.8 0.00 0.00 0.00 53 1023.2
20260906111337 13 280 3.2 4.8 0.00 0.00 0.00 50 1023.0
20260906110832 13 282 3.2 4.8 0.00 0.00 0.00 48 1023.1
20260906110328 13 284 3.2 4.8 0.00 0.00 0.00 44 1023.1
20260906105827 13 319 3.2 4.8 0.00 0.00 0.00 43 1022.9
20260906105323 13 269 1.6 3.2 0.00 0.00 0.00 45 1022.7
20260906104818 13 267 3.2 4.8 0.00 0.00 0.00 46 1023.0
20260906104317 12 306 3.2 6.4 0.00 0.00 0.00 45 1022.9
20260906103816 12 321 3.2 4.8 0.00 0.00 0.00 48 1022.7
20260906103314 12 307 3.2 3.2 0.00 0.00 0.00 48 1022.7
20260906102811 12 267 3.2 3.2 0.00 0.00 0.00 50 1022.7
20260906102309 13 269 3.2 3.2 0.00 0.00 0.00 47 1022.7
20260906101806 13 276 3.2 3.2 0.00 0.00 0.00 50 1022.7
20260906101306 13 285 3.2 3.2 0.00 0.00 0.00 48 1022.9
20260906100801 13 300 1.6 1.6 0.00 0.00 0.00 47 1022.9
20260906100301 13 274 1.6 3.2 0.00 0.00 0.00 49 1022.6
20260906095756 13 285 0.0 3.2 0.00 0.00 0.00 48 1022.7
20260906095251 13 267 3.2 3.2 0.00 0.00 0.00 51 1022.6
20260906094750 13 288 1.6 3.2 0.00 0.00 0.00 53 1022.6
20260906094245 13 285 3.2 3.2 0.00 0.00 0.00 50 1022.7
20260906093741 13 290 3.2 3.2 0.00 0.00 0.00 47 1022.5
20260906093236 13 278 3.2 3.2 0.00 0.00 0.00 49 1022.5
20260906092732 13 301 3.2 3.2 0.00 0.00 0.00 43 1022.4
20260906092232 13 275 3.2 3.2 0.00 0.00 0.00 48 1022.4
20260906091727 13 299 1.6 3.2 0.00 0.00 0.00 47 1022.4
20260906091224 13 294 1.6 3.2 0.00 0.00 0.00 48 1022.6
20260906090720 12 280 1.6 3.2 0.00 0.00 0.00 50 1022.5
20260906090219 12 274 3.2 3.2 0.00 0.00 0.00 50 1022.6
20260906085719 12 272 1.6 3.2 0.00 0.00 0.00 51 1022.4
20260906085217 13 287 3.2 3.2 0.00 0.00 0.00 51 1022.6
20260906084713 13 267 3.2 3.2 0.00 0.00 0.00 53 1022.6
20260906084212 13 278 3.2 3.2 0.00 0.00 0.00 50 1022.6
20260906083708 13 290 3.2 3.2 0.00 0.00 0.00 47 1022.5
20260906083203 13 293 1.6 3.2 0.00 0.00 0.00 46 1022.6
20260906082658 13 303 3.2 3.2 0.00 0.00 0.00 46 1022.7
20260906082153 13 288 3.2 3.2 0.00 0.00 0.00 48 1022.6
20260906081649 13 274 1.6 3.2 0.00 0.00 0.00 45 1022.7
20260906081144 13 264 0.0 1.6 0.00 0.00 0.00 45 1022.5
20260906080640 13 276 3.2 3.2 0.00 0.00 0.00 51 1022.7
20260906080136 13 261 1.6 3.2 0.00 0.00 0.00 44 1022.6
20260906075636 13 293 3.2 3.2 0.00 0.00 0.00 49 1022.6
20260906075130 13 289 3.2 3.2 0.00 0.00 0.00 46 1022.5
20260906074626 13 283 3.2 3.2 0.00 0.00 0.00 48 1022.4
20260906074124 13 296 3.2 3.2 0.00 0.00 0.00 49 1022.5
20260906073619 13 294 3.2 4.8 0.00 0.00 0.00 49 1022.5
20260906073115 13 291 0.0 3.2 0.00 0.00 0.00 46 1022.4
20260906072611 13 291 1.6 3.2 0.00 0.00 0.00 49 1022.5
20260906072107 13 286 3.2 3.2 0.00 0.00 0.00 49 1022.5
20260906071603 13 267 3.2 3.2 0.00 0.00 0.00 50 1022.4
20260906071102 13 280 1.6 3.2 0.00 0.00 0.00 51 1022.5
20260906070559 13 314 1.6 3.2 0.00 0.00 0.00 50 1022.5
20260906070054 14 275 3.2 3.2 0.00 0.00 0.00 47 1022.4
20260906065554 14 287 3.2 3.2 0.00 0.00 0.00 46 1022.4
20260906065050 14 295 3.2 3.2 0.00 0.00 0.00 45 1022.5
20260906064545 14 284 3.2 3.2 0.00 0.00 0.00 46 1022.5
20260906064040 14 293 3.2 3.2 0.00 0.00 0.00 48 1022.4
20260906063536 14 300 0.0 3.2 0.00 0.00 0.00 46 1022.5
20260906063032 14 287 3.2 3.2 0.00 0.00 0.00 45 1022.5
20260906062527 13 299 1.6 3.2 0.00 0.00 0.00 44 1022.5
20260906062021 13 287 1.6 3.2 0.00 0.00 0.00 46 1022.6
20260906061517 13 283 1.6 3.2 0.00 0.00 0.00 47 1022.7
20260906061016 13 287 1.6 3.2 0.00 0.00 0.00 46 1022.7
20260906060513 14 280 3.2 3.2 0.00 0.00 0.00 46 1022.6
20260906060010 14 288 3.2 3.2 0.00 0.00 0.00 45 1022.5
20260906055506 14 287 1.6 3.2 0.00 0.00 0.00 44 1022.7
20260906055001 14 288 3.2 3.2 0.00 0.00 0.00 46 1022.6
20260906054500 15 275 1.6 3.2 0.00 0.00 0.00 41 1022.6
20260906053956 15 279 3.2 3.2 0.00 0.00 0.00 43 1022.7
20260906053452 15 274 1.6 3.2 0.00 0.00 0.00 46 1022.6
20260906052948 15 277 3.2 3.2 0.00 0.00 0.00 44 1022.7
20260906052443 15 271 1.6 3.2 0.00 0.00 0.00 42 1022.5
20260906051940 15 279 3.2 3.2 0.00 0.00 0.00 43 1022.7
20260906051435 16 273 1.6 3.2 0.00 0.00 0.00 41 1022.7
20260906050931 16 289 1.6 3.2 0.00 0.00 0.00 41 1022.9
20260906050431 16 290 1.6 3.2 0.00 0.00 0.00 40 1022.7
20260906045930 16 298 1.6 1.6 0.00 0.00 0.00 39 1023.0
20260906045429 16 306 0.0 1.6 0.00 0.00 0.00 39 1023.0
20260906044926 16 286 0.0 3.2 0.00 0.00 0.00 39 1023.1
20260906044425 16 294 1.6 3.2 0.00 0.00 0.00 40 1023.0
20260906043921 16 299 3.2 3.2 0.00 0.00 0.00 39 1023.1
20260906043417 16 285 3.2 3.2 0.00 0.00 0.00 40 1023.2
20260906042912 16 283 0.0 3.2 0.00 0.00 0.00 40 1023.0
20260906042411 16 293 0.0 3.2 0.00 0.00 0.00 38 1023.0
20260906041906 16 275 1.6 3.2 0.00 0.00 0.00 38 1023.0
20260906041403 16 280 1.6 3.2 0.00 0.00 0.00 38 1022.9
20260906040902 17 302 3.2 3.2 0.00 0.00 0.00 37 1022.9
20260906040357 17 294 3.2 3.2 0.00 0.00 0.00 38 1023.0
20260906035853 17 304 1.6 3.2 0.00 0.00 0.00 37 1023.0
20260906035348 17 266 1.6 3.2 0.00 0.00 0.00 37 1023.0
20260906034843 17 293 1.6 3.2 0.00 0.00 0.00 38 1023.1
20260906034338 17 308 1.6 3.2 0.00 0.00 0.00 38 1023.2
20260906033834 16 298 3.2 3.2 0.00 0.00 0.00 40 1023.1
20260906033333 16 300 1.6 3.2 0.00 0.00 0.00 40 1023.0
20260906032830 17 305 3.2 3.2 0.00 0.00 0.00 40 1023.0
20260906032325 17 284 3.2 3.2 0.00 0.00 0.00 41 1023.1
20260906031820 17 291 3.2 3.2 0.00 0.00 0.00 38 1023.0
20260906031316 18 230 0.0 3.2 0.00 0.00 0.00 35 1023.0
20260906030815 18 296 1.6 3.2 0.00 0.00 0.00 34 1022.7
20260906030311 18 298 1.6 3.2 0.00 0.00 0.00 36 1022.7
20260906025810 17 326 0.0 3.2 0.00 0.00 0.00 37 1022.7
20260906025306 18 274 0.0 3.2 0.00 0.00 0.00 35 1022.7
20260906024804 17 301 1.6 3.2 0.00 0.00 0.00 36 1022.7
20260906024303 17 298 3.2 3.2 0.00 0.00 0.00 42 1022.6
20260906023759 17 303 3.2 3.2 0.00 0.00 0.00 41 1022.5
20260906023254 18 302 3.2 3.2 0.00 0.00 0.00 39 1022.5
20260906022749 17 319 3.2 3.2 0.00 0.00 0.00 39 1022.4
20260906022244 18 300 3.2 4.8 0.00 0.00 0.00 41 1022.1
20260906021741 18 323 3.2 4.8 0.00 0.00 0.00 40 1022.3
20260906021240 19 318 3.2 3.2 0.00 0.00 0.00 40 1022.1
20260906020734 19 322 0.0 3.2 0.00 0.00 0.00 36 1022.4
20260906020229 20 272 1.6 3.2 0.00 0.00 0.00 37 1022.0
20260906015723 21 268 0.0 4.8 0.00 0.00 0.00 32 1022.0
20260906015221 21 235 0.0 1.6 0.00 0.00 0.00 29 1021.9
20260906014716 21 290 0.0 3.2 0.00 0.00 0.00 30 1022.0
20260906014212 21 252 0.0 1.6 0.00 0.00 0.00 28 1022.1
20260906013708 21 212 0.0 4.8 0.00 0.00 0.00 28 1021.9
20260906013209 21 277 0.0 3.2 0.00 0.00 0.00 31 1021.9
20260906012704 21 272 1.6 1.6 0.00 0.00 0.00 30 1022.0
20260906012203 22 280 1.6 1.6 0.00 0.00 0.00 31 1021.9
20260906011659 22 276 1.6 3.2 0.00 0.00 0.00 33 1021.9
20260906011154 22 229 0.0 3.2 0.00 0.00 0.00 28 1021.8
20260906010649 23 233 0.0 3.2 0.00 0.00 0.00 27 1021.9
20260906010146 23 303 1.6 3.2 0.00 0.00 0.00 31 1021.6
20260906005645 24 218 0.0 3.2 0.00 0.00 0.00 26 1021.8
20260906005144 25 297 0.0 0.0 0.00 0.00 0.00 26 1021.5
20260906004643 25 265 1.6 3.2 0.00 0.00 0.00 26 1021.6
20260906004138 25 234 1.6 3.2 0.00 0.00 0.00 28 1021.4
20260906003633 25 154 0.0 3.2 0.00 0.00 0.00 25 1021.5
20260906003129 25 218 3.2 3.2 0.00 0.00 0.00 28 1021.5
20260906002624 25 281 1.6 3.2 0.00 0.00 0.00 24 1021.5
20260906002119 25 294 1.6 4.8 0.00 0.00 0.00 26 1021.5
20260906001614 25 107 0.0 4.8 0.00 0.00 0.00 24 1021.4
20260906001108 25 219 3.2 3.2 0.00 0.00 0.00 24 1021.6
20260906000604 25 220 1.6 4.8 0.00 0.00 0.00 23 1021.6
20260906000059 25 234 3.2 3.2 0.00 0.00 0.00 23 1021.5
20260905235558 25 261 1.6 4.8 0.00 0.00 0.00 23 1021.6
20260905235054 25 219 1.6 4.8 0.00 0.00 0.00 23 1021.9
20260905234549 25 222 3.2 4.8 0.00 0.00 0.00 24 1021.9
20260905234044 26 215 1.6 4.8 0.00 0.00 0.00 22 1021.8
20260905233539 26 213 3.2 6.4 0.00 0.00 0.00 22 1021.6
20260905233038 25 223 1.6 4.8 0.00 0.00 0.00 22 1021.5